Overview Statistics Trail Chart Weather Telemetry Raw packets
 

This is the latest recevied weather packets stored in our database for station/object IW1RCO-13. If no packets are shown the sender has not sent any weather packets the latest 10 day(s).

<< 31 32 33 34 35 36 37 >>
Time Temp. Humidity Pressure Rain* Wind** Luminosity Snow
1788424168 24.44° C 72% 1019.4 hPa - - - -
1788423871 23.89° C 74% 1019.7 hPa - - - -
1788423567 23.89° C 74% 1019.8 hPa - - - -
1788423271 23.89° C 73% 1019.7 hPa - - - -
1788422967 23.89° C 72% 1019.6 hPa - - - -
1788422670 23.33° C 72% 1019.7 hPa - - - -
1788422367 23.33° C 75% 1019.2 hPa - - - -
1788422070 23.33° C 76% 1019.2 hPa - - - -
1788421767 23.33° C 77% 1019.6 hPa - - - -
1788421470 22.78° C 74% 1019.2 hPa - - - -
1788421166 22.78° C 75% 1019.5 hPa - - - -
1788420870 22.78° C 75% 1019.1 hPa - - - -
1788420573 22.78° C 74% 1019 hPa - - - -
1788420269 22.78° C 74% 1019.6 hPa - - - -
1788417268 22.78° C 73% 1019.6 hPa - - - -
1788416971 22.22° C 73% 1018.9 hPa - - - -
1788416668 21.67° C 75% 1019.2 hPa - - - -
1788416371 21.11° C 77% 1019.5 hPa - - - -
1788416067 20.56° C 81% 1019.2 hPa - - - -
1788415771 20.56° C 81% 1018.6 hPa - - - -
1788415467 20° C 82% 1019.1 hPa - - - -
1788415170 20° C 82% 1018.9 hPa - - - -
1788414867 20.56° C 81% 1019.2 hPa - - - -
1788414570 20° C 81% 1019.5 hPa - - - -
1788414266 20° C 80% 1019.5 hPa - - - -

* Rain since midnight (hover to see other rain measurements)
** Current wind speed in m/s (hover to see current wind gust speed)